Regional Weather Roundup
Issued by NWS

Home | Current Version | Previous Version | Text Only | Print | Product List | Glossary Off
Versions: 1 2 3 4 5 6 7 8 9 10 11 12 13 14 15 16 17 18 19 20 21 22 23 24 25 26 27

000
ASUS45 KBOU 231007
RWRCO

WEATHER ROUNDUP FOR COLORADO
NATIONAL WEATHER SERVICE DENVER/BOULDER CO
400 AM MDT THU MAR 23 2017

NOTE: "FAIR" INDICATES FEW OR NO CLOUDS BELOW 12000 FEET WITH NO
SIGNIFICANT WEATHER AND/OR OBSTRUCTIONS TO VISIBILITY.

COZ001>005-013-030-031-231100-
...NORTHWEST COLORADO...

CITY           SKY/WX    TMP DP  RH WIND       PRES   REMARKS
CRAIG          FAIR      36  30  79 CALM      29.75F
HAYDEN         FAIR      43  28  56 E13       29.77F
MEEKER         FAIR      43  32  65 NE8       29.74F
MOUNT WERNER   NOT AVBL
STEAMBOAT SPGS FAIR      44  31  59 E17G25    29.80F
WALDEN         NOT AVBL
$$

COZ006>008-011-231100-
...WEST CENTRAL VALLEYS...

CITY           SKY/WX    TMP DP  RH WIND       PRES   REMARKS
GRAND JUNCTION FAIR      50  37  61 N16       29.73R
MONTROSE       FAIR      53  22  29 S9        29.80F
EAGLE          FAIR      44  33  65 VRB3      29.85F
RIFLE          FAIR      46  31  55 SE6       29.75F
DELTA          FAIR      58  22  24 S12G17    29.77F
NUCLA          FAIR      52  23  32 S13G20    29.85S
$$

COZ017>023-064>068-231100-
...SOUTHWEST COLORADO...

CITY           SKY/WX    TMP DP  RH WIND       PRES   REMARKS
DURANGO        FAIR      36  23  59 CALM      29.89F
CORTEZ         FAIR      48  29  47 S15       29.86F
PAGOSA SPRINGS MOCLDY    46  25  44 W6        29.93S
TELLURIDE      CLOUDY    45  19  36 S13G21    29.93F
WOLF CREEK PAS CLOUDY    30  18  59 S25G40    30.07S WCI  16
$$

COZ009-010-012-014-032>034-037-058>063-231100-
...CENTRAL COLORADO...

CITY           SKY/WX    TMP DP  RH WIND       PRES   REMARKS
ASPEN          MOCLDY    40  31  70 CALM      29.87F
BUENA VISTA    FAIR      49  19  30 SW5G18    29.88F
COPPER MTN     FAIR      34  21  60 MISG      30.03F
BERTHOUD PASS  MOCLDY    28  18  64 W14       30.03F WCI  17
COTTONWOOD PAS MOCLDY    43  19  39 SW12G17   29.96F
GUNNISON       FAIR      39  28  64 N8        29.87F
KREMMLING      FAIR      46  30  53 SW12G17   29.86F
LEADVILLE      CLOUDY    33  25  72 W6        29.94F WCI  28
MONARCH PASS   MOCLDY    30  21  69 SW35G46   30.11F WCI  14
SALIDA         FAIR      51  20  30 W6G16     29.95F
SUNLIGHT       MOCLDY    30  27  86 S15G31    29.96F WCI  19
WILKERSON PASS CLOUDY    34  18  51 SW8G23    30.03F WCI  27
$$

COZ069>075-231100-
...SAN LUIS VALLEY/SANGRE DE CRISTO MOUNTAINS...

CITY           SKY/WX    TMP DP  RH WIND       PRES   REMARKS
ALAMOSA        FAIR      34  21  59 SW7       29.88F WCI  28
LA VETA PASS   NOT AVBL
SAGUACHE       MOCLDY    45  23  42 W3        29.90F
$$

COZ035-036-038>040-231100-
...NORTHERN COLORADO FRONT RANGE...

CITY           SKY/WX    TMP DP  RH WIND       PRES   REMARKS
DENVER INTL AP FAIR      54  35  48 S21       29.70F
DMNS CITY PARK   N/A     51  33  49 SE12      29.70S
AURORA         PTCLDY    50  34  53 S15       29.72F
FRONT RANGE AP FAIR      52  37  58 S17       29.72F
ERIE MUNI ARPT FAIR      39  28  64 CALM      29.70F
BOULDER MUN AP FAIR      46  30  53 SE5       29.70F
CENTENNIAL     FAIR      51  34  52 S9        29.73F
BROOMFIELD     FAIR      50  27  40 NW12      29.72S
FORT COLLINS   FAIR      40  34  79 N7        29.70F
LONGMONT       FAIR      44  29  55 CALM      29.71F
$$

COZ041-046-047-076>085-087-088-231100-
...PIKES PEAK/PALMER DIVIDE AND SOUTHERN FOOTHILLS...

CITY           SKY/WX    TMP DP  RH WIND       PRES   REMARKS
COLO. SPRINGS  FAIR      45  34  65 N6        29.79F
A. F. ACADEMY  FAIR      33  29  85 N8        29.80F WCI  26
SCHRIEVER AFB  FAIR      42  36  76 N7        29.80F
ELLICOTT         N/A    N/A N/A N/A SE15      29.77F
FALCON         FAIR      37  32  82 W6        29.82F
FORT CARSON    CLEAR     41  31  68 NW8       29.79S
LIMON          FAIR      38  38 100 SE5       29.77F FOG
MONUMENT HILL  FAIR      43  32  65 S13       29.81F
TRINIDAD       FAIR      59  43  55 S21       29.80F
$$

COZ042>045-048>051-090-091-231100-
...NORTHEAST COLORADO...

CITY           SKY/WX    TMP DP  RH WIND       PRES   REMARKS
GREELEY ARPT   FAIR      37  31  78 NW3       29.71
AKRON          FAIR      50  42  74 S15       29.69F
BURLINGTON     FAIR      47  44  90 S22G30    29.75F
WRAY           FAIR      48  43  81 MISG      29.73F
STERLING       FAIR      36  34  93 NE7       29.69F
HOLYOKE        FAIR      37  36  93 E8        29.72F
FORT MORGAN    FAIR      41  35  81 N6        29.70F
$$

COZ086-089-092>099-231100-
...SOUTHEAST COLORADO...

CITY           SKY/WX    TMP DP  RH WIND       PRES   REMARKS
PUEBLO         FAIR      37  29  72 N7        29.74S
LA JUNTA       FAIR      62  48  60 S15       29.72F
LAMAR          FAIR      58  48  69 S16G29    29.72F
SPRINGFIELD      N/A     51  48  89 S18       29.81F
$$




USA.gov is the U.S. government's official web portal to all federal, state and local government web resources and services.